Location: St. Louis
(38.6270°N, 90.1994°W)
Time: 13:03:58
(UTC-06:00)

Courier 1B Rocket - All Passes

Search period start: 30 November 2021 00:00
Search period end: 10 December 2021 00:00
Orbit: 920 x 1202 km, 28.2° (Epoch: 30 November)

Date Brightness Start Highest point End Pass type
(mag) Time Alt. Az. Time Alt. Az. Time Alt. Az.
30 Nov - 00:43:50 10° SW 00:49:02 28° S 00:54:17 10° ESE night (unlit)
30 Nov - 02:36:17 10° WSW 02:41:44 32° S 02:47:23 10° ESE visible
30 Nov - 04:29:42 10° WSW 04:34:26 22° SSW 04:39:23 10° SSE visible
30 Nov - 21:54:59 10° SSE 21:55:48 10° SSE 21:56:37 10° SE night (unlit)
30 Nov - 23:43:22 10° SW 23:48:16 24° SSE 23:53:09 10° ESE night (unlit)
01 Dec - 01:35:29 10° WSW 01:40:55 32° S 01:46:28 10° ESE night (unlit)
01 Dec - 03:28:34 10° WSW 03:33:37 25° SSW 03:38:53 10° SE visible
01 Dec - 05:23:50 10° SW 05:26:13 12° SSW 05:28:38 10° S visible
01 Dec - 22:43:07 10° SSW 22:47:31 20° SSE 22:51:51 10° ESE night (unlit)
02 Dec - 00:34:44 10° SW 00:40:07 31° S 00:45:32 10° ESE night (unlit)
02 Dec - 02:27:34 10° WSW 02:32:49 29° S 02:38:13 10° SE visible
02 Dec - 04:21:40 10° WSW 04:25:26 16° SSW 04:29:17 10° SSE visible
02 Dec - 21:43:11 10° SSW 21:46:45 15° SSE 21:50:16 10° ESE night (unlit)
02 Dec - 23:34:03 10° SW 23:39:20 28° S 23:44:33 10° ESE night (unlit)
03 Dec - 01:26:38 10° WSW 01:32:01 31° S 01:37:28 10° SE night (unlit)
03 Dec - 03:20:11 10° WSW 03:24:39 20° SSW 03:29:14 10° SSE visible
03 Dec - 20:44:10 10° S 20:46:00 11° SSE 20:47:49 10° SE night (unlit)
03 Dec - 22:33:28 10° SW 22:38:32 25° SSE 22:43:29 10° ESE night (unlit)
04 Dec - 00:25:44 10° WSW 00:31:13 32° S 00:36:40 10° ESE night (unlit)
04 Dec - 02:18:58 10° WSW 02:23:53 24° SSW 02:28:52 10° SE night (unlit)
04 Dec - 04:14:48 10° SW 04:16:23 11° SSW 04:17:58 10° S visible
04 Dec - 21:33:04 10° SSW 21:37:45 21° SSE 21:42:18 10° ESE night (unlit)
04 Dec - 23:24:54 10° SW 23:30:25 31° S 23:35:49 10° ESE night (unlit)
05 Dec - 01:17:53 10° WSW 01:23:06 28° S 01:28:20 10° SE night (unlit)
05 Dec - 03:12:13 10° SW 03:15:39 15° SSW 03:19:07 10° SSE visible
05 Dec - 20:32:57 10° SSW 20:36:58 17° SSE 20:40:51 10° ESE visible
05 Dec - 22:24:06 10° SW 22:29:36 29° S 22:34:55 10° ESE night (unlit)
06 Dec - 00:16:51 10° WSW 00:22:19 31° S 00:27:42 10° SE night (unlit)
06 Dec - 02:10:35 10° WSW 02:14:55 20° SSW 02:19:16 10° SSE night (unlit)
06 Dec - 19:33:29 10° S 19:36:10 12° SSE 19:38:47 10° SE visible
06 Dec - 21:23:24 10° SW 21:28:46 26° SSE 21:33:56 10° ESE night (unlit)
06 Dec - 23:15:52 10° WSW 23:21:31 32° S 23:26:59 10° ESE night (unlit)
07 Dec - 01:09:15 10° WSW 01:14:09 24° SSW 01:19:02 10° SE night (unlit)
07 Dec - 03:06:00 10° SSW 03:06:36 10° SSW 03:07:12 10° SSW night (unlit)
07 Dec - 20:22:51 10° SSW 20:27:56 22° SSE 20:32:48 10° ESE visible
07 Dec - 22:14:54 10° WSW 22:20:41 32° S 22:26:12 10° ESE night (unlit)
08 Dec - 00:08:03 10° WSW 00:13:24 28° S 00:18:36 10° SE night (unlit)
08 Dec - 02:02:37 10° SW 02:05:54 15° SSW 02:09:10 10° S night (unlit)
08 Dec - 19:22:35 10° SSW 19:27:05 18° SSE 19:31:26 10° ESE visible
08 Dec - 21:13:59 10° SW 21:19:49 30° S 21:25:21 10° ESE visible
08 Dec - 23:06:55 10° WSW 23:12:35 31° S 23:18:03 10° SE night (unlit)
09 Dec - 01:00:50 10° WSW 01:05:11 19° SSW 01:09:28 10° SSE night (unlit)
09 Dec - 18:22:50 10° S 18:26:14 14° SSE 18:29:32 10° SE visible
09 Dec - 20:13:11 10° SW 20:18:56 27° SSE 20:24:24 10° ESE visible
09 Dec - 22:05:49 10° WSW 22:11:45 33° S 22:17:23 10° ESE night (unlit)
